Time,TemperatureF,DewpointF,PressureIn,WindDirection,WindDirectionDegrees,WindSpeedMPH,WindSpeedGustMPH,Humidity,HourlyPrecipIn,Conditions,Clouds,dailyrainin,SoftwareType,DateUTC
2013-05-08 00:14:00,59.0,48.0,30.05,NE,48,0.0,2.0,68,0.00,,,0.00,weatherlink.com 1.10,2013-05-08 05:14:00,
2013-05-08 00:28:00,58.4,49.0,30.05,NE,50,0.0,1.0,71,0.00,,,0.00,weatherlink.com 1.10,2013-05-08 05:28:00,
2013-05-08 00:43:00,57.9,49.0,30.05,ENE,66,0.0,3.0,72,0.00,,,0.00,weatherlink.com 1.10,2013-05-08 05:43:00,
2013-05-08 00:58:00,57.1,48.0,30.04,ENE,58,1.0,3.0,72,0.00,,,0.00,weatherlink.com 1.10,2013-05-08 05:58:00,
2013-05-08 01:13:00,57.4,50.0,30.04,ENE,57,0.0,2.0,75,0.00,,,0.00,weatherlink.com 1.10,2013-05-08 06:13:00,
2013-05-08 01:28:00,56.6,50.0,30.03,ENE,57,0.0,2.0,78,0.00,,,0.00,weatherlink.com 1.10,2013-05-08 06:28:00,
2013-05-08 01:43:00,55.9,50.0,30.03,ENE,57,0.0,1.0,80,0.00,,,0.00,weatherlink.com 1.10,2013-05-08 06:43:00,
2013-05-08 01:58:00,55.0,50.0,30.03,ENE,57,0.0,0.0,83,0.00,,,0.00,weatherlink.com 1.10,2013-05-08 06:58:00,
2013-05-08 02:13:00,55.0,50.0,30.03,ENE,57,0.0,0.0,82,0.00,,,0.00,weatherlink.com 1.10,2013-05-08 07:13:00,
2013-05-08 02:28:00,54.8,50.0,30.03,ENE,57,0.0,1.0,83,0.00,,,0.00,weatherlink.com 1.10,2013-05-08 07:28:00,
2013-05-08 02:43:00,54.6,49.0,30.03,ENE,57,0.0,0.0,82,0.00,,,0.00,weatherlink.com 1.10,2013-05-08 07:43:00,
2013-05-08 02:58:00,53.9,49.0,30.03,ENE,57,0.0,1.0,84,0.00,,,0.00,weatherlink.com 1.10,2013-05-08 07:58:00,
2013-05-08 03:13:00,53.3,49.0,30.03,ENE,57,1.0,3.0,85,0.00,,,0.00,weatherlink.com 1.10,2013-05-08 08:13:00,
2013-05-08 03:28:00,52.9,48.0,30.03,ENE,57,1.0,3.0,84,0.00,,,0.00,weatherlink.com 1.10,2013-05-08 08:28:00,
2013-05-08 03:43:00,52.6,48.0,30.03,ENE,57,0.0,3.0,84,0.00,,,0.00,weatherlink.com 1.10,2013-05-08 08:43:00,
2013-05-08 03:58:00,52.6,47.0,30.03,ENE,57,0.0,0.0,82,0.00,,,0.00,weatherlink.com 1.10,2013-05-08 08:58:00,
2013-05-08 04:13:00,51.9,48.0,30.03,ENE,57,0.0,0.0,85,0.00,,,0.00,weatherlink.com 1.10,2013-05-08 09:13:00,
2013-05-08 04:28:00,51.4,47.0,30.03,ENE,57,0.0,0.0,85,0.00,,,0.00,weatherlink.com 1.10,2013-05-08 09:28:00,
2013-05-08 04:43:00,51.0,47.0,30.03,ENE,57,1.0,1.0,86,0.00,,,0.00,weatherlink.com 1.10,2013-05-08 09:43:00,
2013-05-08 04:58:00,50.6,47.0,30.04,ENE,57,1.0,2.0,87,0.00,,,0.00,weatherlink.com 1.10,2013-05-08 09:58:00,
2013-05-08 05:13:00,50.7,47.0,30.04,ENE,57,0.0,2.0,87,0.00,,,0.00,weatherlink.com 1.10,2013-05-08 10:13:00,
2013-05-08 05:28:00,50.3,47.0,30.04,ENE,57,0.0,2.0,87,0.00,,,0.00,weatherlink.com 1.10,2013-05-08 10:28:00,
2013-05-08 05:43:00,50.4,47.0,30.05,NW,310,4.0,4.0,89,0.00,,,0.00,weatherlink.com 1.10,2013-05-08 10:43:00,
2013-05-08 05:58:00,51.7,48.0,30.05,NNW,339,4.0,4.0,87,0.00,,,0.00,weatherlink.com 1.10,2013-05-08 10:58:00,
2013-05-08 06:13:00,52.1,48.0,30.06,NNW,345,0.0,3.0,86,0.00,,,0.00,weatherlink.com 1.10,2013-05-08 11:13:00,
2013-05-08 06:28:00,52.4,49.0,30.07,NNW,344,3.0,4.0,87,0.00,,,0.00,weatherlink.com 1.10,2013-05-08 11:28:00,
2013-05-08 06:43:00,53.4,50.0,30.07,NW,320,3.0,3.0,87,0.00,,,0.00,weatherlink.com 1.10,2013-05-08 11:43:00,
2013-05-08 06:58:00,55.7,50.0,30.07,NNE,12,1.0,3.0,82,0.00,,,0.00,weatherlink.com 1.10,2013-05-08 11:58:00,
2013-05-08 07:14:00,57.0,51.0,30.07,NNE,12,0.0,2.0,80,0.00,,,0.00,weatherlink.com 1.10,2013-05-08 12:14:00,
2013-05-08 07:29:00,58.9,52.0,30.07,NNE,12,0.0,2.0,77,0.00,,,0.00,weatherlink.com 1.10,2013-05-08 12:29:00,
2013-05-08 07:44:00,60.7,53.0,30.08,NNE,12,2.0,2.0,75,0.00,,,0.00,weatherlink.com 1.10,2013-05-08 12:44:00,
2013-05-08 07:59:00,62.2,53.0,30.08,NW,324,3.0,3.0,73,0.00,,,0.00,weatherlink.com 1.10,2013-05-08 12:59:00,
2013-05-08 08:14:00,63.8,55.0,30.08,NE,43,1.0,5.0,72,0.00,,,0.00,weatherlink.com 1.10,2013-05-08 13:14:00,
2013-05-08 08:29:00,64.4,55.0,30.08,NNW,347,2.0,4.0,71,0.00,,,0.00,weatherlink.com 1.10,2013-05-08 13:29:00,
2013-05-08 08:44:00,66.4,55.0,30.08,WNW,295,3.0,4.0,68,0.00,,,0.00,weatherlink.com 1.10,2013-05-08 13:44:00,
2013-05-08 08:59:00,67.8,56.0,30.08,NW,310,2.0,5.0,66,0.00,,,0.00,weatherlink.com 1.10,2013-05-08 13:59:00,
2013-05-08 09:14:00,69.2,56.0,30.08,NNW,347,3.0,6.0,64,0.00,,,0.00,weatherlink.com 1.10,2013-05-08 14:14:00,
2013-05-08 09:29:00,70.4,57.0,30.07,NW,315,3.0,8.0,62,0.00,,,0.00,weatherlink.com 1.10,2013-05-08 14:29:00,
2013-05-08 09:44:00,71.4,57.0,30.07,West,275,2.0,9.0,61,0.00,,,0.00,weatherlink.com 1.10,2013-05-08 14:44:00,
2013-05-08 09:59:00,72.8,57.0,30.07,NNW,343,4.0,8.0,58,0.00,,,0.00,weatherlink.com 1.10,2013-05-08 14:59:00,
2013-05-08 10:14:00,73.1,55.0,30.07,NW,320,8.0,9.0,54,0.00,,,0.00,weatherlink.com 1.10,2013-05-08 15:14:00,
2013-05-08 10:29:00,73.3,55.0,30.07,NNW,329,4.0,9.0,53,0.00,,,0.00,weatherlink.com 1.10,2013-05-08 15:29:00,
2013-05-08 10:44:00,74.0,54.0,30.07,NW,315,7.0,8.0,49,0.00,,,0.00,weatherlink.com 1.10,2013-05-08 15:44:00,
2013-05-08 11:14:00,75.9,55.0,30.07,NNW,346,6.0,10.0,48,0.00,,,0.00,weatherlink.com 1.10,2013-05-08 16:14:00,
2013-05-08 11:29:00,76.4,55.0,30.06,North,6,5.0,9.0,48,0.00,,,0.00,weatherlink.com 1.10,2013-05-08 16:29:00,
2013-05-08 11:44:00,77.1,54.0,30.06,NNE,18,4.0,11.0,45,0.00,,,0.00,weatherlink.com 1.10,2013-05-08 16:44:00,
2013-05-08 11:59:00,77.3,54.0,30.06,WNW,302,7.0,12.0,45,0.00,,,0.00,weatherlink.com 1.10,2013-05-08 16:59:00,
2013-05-08 12:14:00,77.4,53.0,30.05,NNE,33,14.0,16.0,43,0.00,,,0.00,weatherlink.com 1.10,2013-05-08 17:14:00,
2013-05-08 12:29:00,78.2,56.0,30.05,NNW,345,7.0,12.0,46,0.00,,,0.00,weatherlink.com 1.10,2013-05-08 17:29:00,
2013-05-08 12:44:00,78.5,54.0,30.05,NNW,330,6.0,12.0,43,0.00,,,0.00,weatherlink.com 1.10,2013-05-08 17:44:00,
2013-05-08 12:59:00,78.7,54.0,30.05,North,349,8.0,15.0,43,0.00,,,0.00,weatherlink.com 1.10,2013-05-08 17:59:00,
2013-05-08 13:14:00,78.6,54.0,30.05,NNE,23,12.0,14.0,43,0.00,,,0.00,weatherlink.com 1.10,2013-05-08 18:14:00,
2013-05-08 13:29:00,78.1,54.0,30.04,NE,47,9.0,12.0,43,0.00,,,0.00,weatherlink.com 1.10,2013-05-08 18:29:00,
2013-05-08 13:44:00,79.6,54.0,30.04,North,9,13.0,15.0,42,0.00,,,0.00,weatherlink.com 1.10,2013-05-08 18:44:00,
2013-05-08 13:59:00,79.4,54.0,30.04,North,6,8.0,16.0,42,0.00,,,0.00,weatherlink.com 1.10,2013-05-08 18:59:00,
2013-05-08 14:14:00,79.8,56.0,30.05,NNE,26,8.0,15.0,44,0.00,,,0.00,weatherlink.com 1.10,2013-05-08 19:14:00,
2013-05-08 14:29:00,78.9,54.0,30.04,North,355,11.0,14.0,42,0.00,,,0.00,weatherlink.com 1.10,2013-05-08 19:29:00,
2013-05-08 14:44:00,79.7,53.0,30.04,ENE,72,2.0,14.0,40,0.00,,,0.00,weatherlink.com 1.10,2013-05-08 19:44:00,
2013-05-08 14:59:00,78.9,53.0,30.03,NNE,22,10.0,14.0,40,0.00,,,0.00,weatherlink.com 1.10,2013-05-08 19:59:00,
2013-05-08 15:14:00,79.8,53.0,30.03,NE,51,6.0,15.0,39,0.00,,,0.00,weatherlink.com 1.10,2013-05-08 20:14:00,
2013-05-08 15:29:00,79.5,52.0,30.02,NE,39,3.0,13.0,38,0.00,,,0.00,weatherlink.com 1.10,2013-05-08 20:29:00,
2013-05-08 15:44:00,78.4,51.0,30.02,North,360,10.0,14.0,39,0.00,,,0.00,weatherlink.com 1.10,2013-05-08 20:44:00,
2013-05-08 15:59:00,79.6,51.0,30.01,NNE,32,4.0,14.0,37,0.00,,,0.00,weatherlink.com 1.10,2013-05-08 20:59:00,
2013-05-08 16:15:00,76.7,51.0,30.01,NNE,33,10.0,14.0,40,0.00,,,0.00,weatherlink.com 1.10,2013-05-08 21:15:00,
2013-05-08 16:30:00,79.9,52.0,30.01,North,6,7.0,12.0,38,0.00,,,0.00,weatherlink.com 1.10,2013-05-08 21:30:00,
2013-05-08 16:45:00,79.5,51.0,30.01,NE,41,6.0,9.0,37,0.00,,,0.00,weatherlink.com 1.10,2013-05-08 21:45:00,
2013-05-08 17:00:00,79.7,51.0,30.01,North,1,6.0,11.0,37,0.00,,,0.00,weatherlink.com 1.10,2013-05-08 22:00:00,
2013-05-08 17:15:00,78.3,50.0,30.01,NE,34,3.0,11.0,37,0.00,,,0.00,weatherlink.com 1.10,2013-05-08 22:15:00,
2013-05-08 17:30:00,77.7,51.0,30.01,ENE,66,2.0,9.0,39,0.00,,,0.00,weatherlink.com 1.10,2013-05-08 22:30:00,
2013-05-08 17:45:00,77.1,50.0,30.01,NE,39,6.0,9.0,38,0.00,,,0.00,weatherlink.com 1.10,2013-05-08 22:45:00,
2013-05-08 18:00:00,77.5,50.0,30.01,NE,35,5.0,10.0,38,0.00,,,0.00,weatherlink.com 1.10,2013-05-08 23:00:00,
2013-05-08 18:15:00,76.5,51.0,30.01,North,8,8.0,8.0,41,0.00,,,0.00,weatherlink.com 1.10,2013-05-08 23:15:00,
2013-05-08 18:30:00,76.7,50.0,30.01,NNE,27,5.0,9.0,39,0.00,,,0.00,weatherlink.com 1.10,2013-05-08 23:30:00,
2013-05-08 18:45:00,74.6,50.0,30.01,NE,42,5.0,6.0,42,0.00,,,0.00,weatherlink.com 1.10,2013-05-08 23:45:00,
2013-05-08 19:00:00,73.6,50.0,30.01,NE,47,5.0,9.0,44,0.00,,,0.00,weatherlink.com 1.10,2013-05-09 00:00:00,
2013-05-08 19:15:00,73.3,51.0,30.01,NNE,32,2.0,5.0,46,0.00,,,0.00,weatherlink.com 1.10,2013-05-09 00:15:00,
2013-05-08 19:30:00,72.3,51.0,30.01,NE,51,1.0,3.0,47,0.00,,,0.00,weatherlink.com 1.10,2013-05-09 00:30:00,
2013-05-08 19:45:00,71.1,51.0,30.01,NE,51,0.0,2.0,49,0.00,,,0.00,weatherlink.com 1.10,2013-05-09 00:45:00,
2013-05-08 20:00:00,67.6,53.0,30.01,NE,51,0.0,0.0,60,0.00,,,0.00,weatherlink.com 1.10,2013-05-09 01:00:00,
2013-05-08 20:15:00,65.4,52.0,30.01,NE,51,0.0,0.0,62,0.00,,,0.00,weatherlink.com 1.10,2013-05-09 01:15:00,
2013-05-08 20:30:00,64.6,53.0,30.02,NE,51,0.0,0.0,66,0.00,,,0.00,weatherlink.com 1.10,2013-05-09 01:30:00,
2013-05-08 20:45:00,62.8,53.0,30.02,NE,51,0.0,1.0,70,0.00,,,0.00,weatherlink.com 1.10,2013-05-09 01:45:00,
2013-05-08 21:00:00,61.6,53.0,30.03,NE,51,0.0,0.0,73,0.00,,,0.00,weatherlink.com 1.10,2013-05-09 02:00:00,
2013-05-08 21:15:00,60.8,53.0,30.03,NE,51,0.0,0.0,75,0.00,,,0.00,weatherlink.com 1.10,2013-05-09 02:15:00,
2013-05-08 21:30:00,60.6,53.0,30.03,NE,51,0.0,0.0,75,0.00,,,0.00,weatherlink.com 1.10,2013-05-09 02:30:00,
2013-05-08 21:45:00,60.5,52.0,30.03,NE,51,0.0,0.0,74,0.00,,,0.00,weatherlink.com 1.10,2013-05-09 02:45:00,
2013-05-08 22:00:00,59.7,53.0,30.03,NE,51,0.0,0.0,78,0.00,,,0.00,weatherlink.com 1.10,2013-05-09 03:00:00,
2013-05-08 22:15:00,58.6,52.0,30.03,NE,51,0.0,0.0,79,0.00,,,0.00,weatherlink.com 1.10,2013-05-09 03:15:00,
2013-05-08 22:30:00,59.1,52.0,30.03,NE,51,0.0,0.0,78,0.00,,,0.00,weatherlink.com 1.10,2013-05-09 03:30:00,
2013-05-08 22:45:00,58.2,52.0,30.02,NE,51,0.0,1.0,80,0.00,,,0.00,weatherlink.com 1.10,2013-05-09 03:45:00,
2013-05-08 23:00:00,56.4,52.0,30.02,NE,51,0.0,0.0,84,0.00,,,0.00,weatherlink.com 1.10,2013-05-09 04:00:00,
2013-05-08 23:15:00,56.5,52.0,30.02,NE,51,0.0,0.0,85,0.00,,,0.00,weatherlink.com 1.10,2013-05-09 04:15:00,
2013-05-08 23:30:00,56.0,51.0,30.02,NE,51,0.0,0.0,84,0.00,,,0.00,weatherlink.com 1.10,2013-05-09 04:30:00,
2013-05-08 23:45:00,55.5,51.0,30.02,NE,51,0.0,0.0,86,0.00,,,0.00,weatherlink.com 1.10,2013-05-09 04:45:00,